Location: Newark
(46.2358°N, 112.1211°W)
Time: 03:09:37
(UTC+00:00)

Envisat - Pass Details

Date: 24 July 2021
Orbit: 764 x 766 km, 98.2° (Epoch: 22 September)

Event Time Altitude Azimuth Distance (km) Brightness Sun altitude
Rises 11:22:22 0° 32° (NNE) 3,244 7.8 -6.4°
Reaches altitude 10° 11:26:00 10° 58° (ENE) 2,311 7.3 -5.9°
Maximum altitude 11:28:25 13° 87° (E) 2,078 6.2 -5.6°
Drops below altitude 10° 11:30:51 10° 116° (ESE) 2,302 5.9 -5.3°
Sets 11:34:26 0° 143° (SE) 3,221 6.3 -4.8°
